EW3204 Weather Reports


time (UTC)temp
C
wind
direction
speed
KPH
gust
KPH
rain 1hr
cm
rain 24hr
cm
rain mn
cm
humidity
%
barometer
mb
20260904023038 28 279 14.5 0.0 0.00 0.00 0.00 27 1004.6
20260904021535 29 301 16.1 0.0 0.00 0.00 0.00 28 1004.6
20260904020028 30 296 16.1 0.0 0.00 0.00 0.00 26 1004.5
20260904014524 30 279 20.9 0.0 0.00 0.00 0.00 25 1004.3
20260904013019 31 272 20.9 0.0 0.00 0.00 0.00 24 1004.3
20260904011518 31 296 27.4 0.0 0.00 0.00 0.00 23 1004.2
20260904010011 32 308 29.0 0.0 0.00 0.00 0.00 22 1004.2
20260904004506 32 235 22.5 0.0 0.00 0.00 0.00 21 1004.2
20260904003001 33 283 20.9 0.0 0.00 0.00 0.00 19 1004.2
20260904001558 34 258 16.1 0.0 0.00 0.00 0.00 17 1004.1
20260904000104 34 271 17.7 0.0 0.00 0.00 0.00 17 1004.0
20260903234548 34 278 24.1 0.0 0.00 0.00 0.00 17 1004.1
20260903233050 35 307 19.3 0.0 0.00 0.00 0.00 17 1004.1
20260903231542 35 275 20.9 0.0 0.00 0.00 0.00 16 1004.2
20260903230037 35 257 19.3 0.0 0.00 0.00 0.00 14 1004.4
20260903224549 35 288 17.7 0.0 0.00 0.00 0.00 12 1004.5
20260903223028 35 279 19.3 0.0 0.00 0.00 0.00 11 1004.6
20260903221524 36 275 17.7 0.0 0.00 0.00 0.00 10 1005.0
20260903220020 36 286 16.1 0.0 0.00 0.00 0.00 11 1005.1
20260903214526 36 316 11.3 0.0 0.00 0.00 0.00 10 1005.1
20260903213008 36 294 12.9 0.0 0.00 0.00 0.00 10 1005.4
20260903211505 36 306 11.3 0.0 0.00 0.00 0.00 10 1005.5
20260903210126 35 344 16.1 0.0 0.00 0.00 0.00 10 1005.7
20260903204559 35 273 8.0 0.0 0.00 0.00 0.00 6 1005.9
20260903203107 35 103 8.0 0.0 0.00 0.00 0.00 6 1006.1
20260903201548 34 100 6.4 0.0 0.00 0.00 0.00 6 1006.2
20260903200051 34 258 3.2 0.0 0.00 0.00 0.00 6 1006.5
20260903194538 33 108 9.7 0.0 0.00 0.00 0.00 6 1006.7
20260903193034 33 93 6.4 0.0 0.00 0.00 0.00 7 1006.9
20260903191535 33 94 6.4 0.0 0.00 0.00 0.00 7 1007.1
20260903190027 33 67 4.8 0.0 0.00 0.00 0.00 7 1007.5
20260903184520 32 121 4.8 0.0 0.00 0.00 0.00 7 1007.8
20260903183016 32 73 8.0 0.0 0.00 0.00 0.00 7 1008.0
20260903181512 32 81 6.4 0.0 0.00 0.00 0.00 7 1008.3
20260903180008 32 21 9.7 0.0 0.00 0.00 0.00 8 1008.3
20260903174503 31 33 8.0 0.0 0.00 0.00 0.00 8 1008.4
20260903173059 31 94 8.0 0.0 0.00 0.00 0.00 8 1008.3
20260903171639 31 111 4.8 0.0 0.00 0.00 0.00 8 1008.3
20260903170050 31 117 4.8 0.0 0.00 0.00 0.00 8 1008.4
20260903164548 30 113 6.4 0.0 0.00 0.00 0.00 9 1008.4
20260903163042 30 114 6.4 0.0 0.00 0.00 0.00 9 1008.3
20260903161537 29 119 6.4 0.0 0.00 0.00 0.00 10 1008.4
20260903160032 28 106 6.4 0.0 0.00 0.00 0.00 11 1008.5
20260903154527 28 110 4.8 0.0 0.00 0.00 0.00 11 1008.4
20260903153023 27 108 6.4 0.0 0.00 0.00 0.00 11 1008.5
20260903151519 27 101 6.4 0.0 0.00 0.00 0.00 11 1008.4
20260903150018 26 152 4.8 0.0 0.00 0.00 0.00 11 1008.4
20260903144510 26 116 3.2 0.0 0.00 0.00 0.00 11 1008.4
20260903143005 25 116 1.6 0.0 0.00 0.00 0.00 13 1008.4
20260903141501 23 205 6.4 0.0 0.00 0.00 0.00 15 1008.2
20260903140058 23 185 4.8 0.0 0.00 0.00 0.00 14 1008.2
20260903134558 22 144 4.8 0.0 0.00 0.00 0.00 12 1008.1
20260903133047 22 223 4.8 0.0 0.00 0.00 0.00 14 1008.1
20260903133013 22 223 4.8 0.0 0.00 0.00 0.00 14 1008.1
20260903131545 21 187 3.2 0.0 0.00 0.00 0.00 12 1008.1
20260903130139 22 190 3.2 0.0 0.00 0.00 0.00 10 1008.2
20260903124541 22 188 4.8 0.0 0.00 0.00 0.00 11 1008.0
20260903123034 21 269 1.6 0.0 0.00 0.00 0.00 12 1008.0
20260903121525 21 225 1.6 0.0 0.00 0.00 0.00 11 1007.8
20260903120020 21 221 1.6 0.0 0.00 0.00 0.00 9 1007.8
20260903114516 22 105 4.8 0.0 0.00 0.00 0.00 10 1007.7
20260903113012 22 174 4.8 0.0 0.00 0.00 0.00 7 1007.7
20260903111507 24 175 6.4 0.0 0.00 0.00 0.00 6 1007.6
20260903110003 23 213 6.4 0.0 0.00 0.00 0.00 6 1007.6
20260903104604 23 167 6.4 0.0 0.00 0.00 0.00 7 1007.6
20260903103059 24 181 6.4 0.0 0.00 0.00 0.00 6 1007.7
20260903101601 23 167 4.8 0.0 0.00 0.00 0.00 6 1007.7
20260903100046 24 217 1.6 0.0 0.00 0.00 0.00 6 1007.7
20260903094538 24 221 3.2 0.0 0.00 0.00 0.00 6 1007.8
20260903093034 25 236 3.2 0.0 0.00 0.00 0.00 6 1007.7
20260903091531 25 115 4.8 0.0 0.00 0.00 0.00 6 1007.7
20260903090026 25 173 3.2 0.0 0.00 0.00 0.00 6 1007.8
20260903084521 25 136 3.2 0.0 0.00 0.00 0.00 6 1007.9
20260903083032 26 292 4.8 0.0 0.00 0.00 0.00 4 1007.9
20260903081524 26 258 6.4 0.0 0.00 0.00 0.00 5 1008.0
20260903080009 26 251 6.4 0.0 0.00 0.00 0.00 5 1008.0
20260903074505 25 230 3.2 0.0 0.00 0.00 0.00 8 1008.2
20260903073010 25 186 1.6 0.0 0.00 0.00 0.00 9 1008.2
20260903071502 26 114 6.4 0.0 0.00 0.00 0.00 9 1008.3
20260903070100 26 213 4.8 0.0 0.00 0.00 0.00 5 1008.2
20260903064553 26 263 6.4 0.0 0.00 0.00 0.00 4 1008.1
20260903063114 26 157 3.2 0.0 0.00 0.00 0.00 8 1008.2
20260903061552 27 247 6.4 0.0 0.00 0.00 0.00 5 1008.3
20260903054550 27 262 11.3 0.0 0.00 0.00 0.00 6 1008.4
20260903053049 28 232 17.7 0.0 0.00 0.00 0.00 6 1008.6
20260903051621 27 275 17.7 0.0 0.00 0.00 0.00 7 1008.6
20260903050108 27 277 20.9 0.0 0.00 0.00 0.00 7 1008.6
20260903044546 27 319 17.7 0.0 0.00 0.00 0.00 8 1008.6
20260903044516 27 297 17.7 0.0 0.00 0.00 0.00 8 1008.6
20260903043044 27 294 11.3 0.0 0.00 0.00 0.00 8 1008.6
20260903041545 27 281 9.7 0.0 0.00 0.00 0.00 9 1008.4
20260903040024 28 267 11.3 0.0 0.00 0.00 0.00 9 1008.3
20260903034528 28 303 6.4 0.0 0.00 0.00 0.00 8 1008.1
20260903033023 29 306 12.9 0.0 0.00 0.00 0.00 7 1007.6
20260903031522 30 260 17.7 0.0 0.00 0.00 0.00 8 1007.4
20260903030023 30 271 22.5 0.0 0.00 0.00 0.00 8 1007.4
20260903024546 30 283 19.3 0.0 0.00 0.00 0.00 9 1007.3